Flag Weather past 2 weeks in Kelowna, British Columbia, Canada

Now
37 °F

Overcast.


Feels Like: 37 °F
Forecast: 32 / 38 °F
Wind: 2 mph from Southwest

Location: Kelowna Airport

Current Time: Nov 24, 2014 at 4:55:13 PM

Latest Report: Nov 24, 2014 at 4:00 PM


Visibility: 9 mi

Pressure: 30.14 "Hg

Humidity: 81%

Dew point: 32 °F

Location of KelownaLocation

Historic Weather in Kelowna — Graph

°F

Kelowna temperature yesterday

Maximum temperature yesterday: 41 °F (at 2:00 PM)
Minimum temperature yesterday: 27 °F (at 12:00 AM)
Average temperature yesterday: 36 °F

Past Weeks' High & Low Weather Summary

 TemperatureHumidityPressure
High48 °F (Nov 9, 3:00 PM)100% (Nov 21, 8:02 PM)30.79 "Hg (Nov 21, 8:02 PM)
Low9 °F (Nov 13, 4:00 AM)30% (Nov 11, 2:00 PM)29.34 "Hg (Nov 21, 11:00 PM)
Average28 °F74%30.28 "Hg
* Reported Nov 9 3:00 PM — Nov 24 3:00 PM, Kelowna, Weather by CustomWeather, © 2014

Note: Actual official high and low records may vary slightly from our data, if they occured in-between our weather recording intervals... More about our weather records

Advertising

Kelowna weather history for previous 24 hours

 ConditionsComfort  
Time TempWeatherWind HumidityBarometerVisibility
3:00 PM
Nov 24
37 °FOvercast.2 mph81%30.17 "Hg9 mi
2:00 PM37 °FOvercast.3 mph87%30.20 "Hg9 mi
1:00 PM37 °FOvercast.3 mph87%30.22 "Hg9 mi
12:00 PM37 °FMostly cloudy.5 mph87%30.24 "Hg9 mi
11:00 AM37 °FOvercast.5 mph87%30.27 "Hg9 mi
10:00 AM36 °FLight rain. Mostly cloudy.7 mph93%30.29 "Hg9 mi
9:00 AM37 °FLight rain. Overcast.5 mph75%30.32 "Hg9 mi
8:46 AM36 °FLight rain. Mostly cloudy.9 mph75%30.32 "Hg9 mi
8:00 AM32 °FMostly cloudy.No wind87%30.32 "Hg9 mi
7:00 AM30 °FPassing clouds.No wind86%30.31 "Hg9 mi
6:00 AM28 °FPartly cloudy.No wind93%30.31 "Hg9 mi
5:00 AM30 °FPassing clouds.No wind86%30.31 "Hg9 mi
4:00 AM30 °FClear.3 mph86%30.31 "Hg9 mi
3:00 AM30 °FPassing clouds.No wind80%30.30 "Hg9 mi
2:00 AM32 °FPassing clouds.No wind80%30.27 "Hg9 mi
1:00 AM39 °FPassing clouds.2 mph65%30.25 "Hg9 mi
12:00 AM39 °FOvercast.5 mph65%30.23 "Hg9 mi
11:00 PM
Nov 23
41 °FPassing clouds.3 mph61%30.20 "Hg9 mi
10:00 PM41 °FPassing clouds.8 mph61%30.16 "Hg9 mi
9:00 PM41 °FOvercast.8 mph66%30.13 "Hg9 mi
8:00 PM39 °FOvercast.No wind70%30.10 "Hg9 mi
7:00 PM34 °FMostly cloudy.2 mph87%30.08 "Hg9 mi
6:00 PM36 °FMostly cloudy.3 mph87%30.06 "Hg9 mi
5:00 PM36 °FPassing clouds.2 mph81%30.02 "Hg9 mi
4:00 PM39 °FBroken clouds.2 mph81%30.00 "Hg9 mi
Weather by CustomWeather, © 2014

See weather overviewHow to use our weather pages